Вернуться в каталог

ONEWEB-0123

АктивенСвязьPO
NORAD 47269·PAYLOAD·🇬🇧 United Kingdom

Запущен Dec 18, 2020 с Vostochny Cosmodrome

Loading…

Ближайшие Пролёты (ближайшие 24 часа)

TLE

СвежийSource: CelesTrak SupGP

Эпоха: Sep 15, 2026, 00:37 UTC

1 47269C 20100M   26258.02584909  .00001179  00000+0  32809-2 0  2580
2 47269  87.8986 332.8288 0001862 103.9875 311.2037 13.12442203    10

Отслеживайте ONEWEB-0123 в реальном времени с AllMySat

Download on the App Store